Regional Weather Roundup
Issued by NWS

Home | Current Version | Previous Version | Graphics & Text | Print | Product List | Glossary Off
Versions: 1 2 3 4 5 6 7 8 9 10 11 12 13 14 15 16 17 18 19 20 21 22 23 24 25 26 27 28 29 30 31 32 33 34 35 36 37 38 39 40 41 42 43 44 45 46 47 48 49 50

000
ASUS43 KMPX 221610
RWRMN
WEATHER ROUNDUP FOR MINNESOTA
NATIONAL WEATHER SERVICE TWIN CITIES/CHANHASSEN MN
1100 AM CDT WED OCT 22 2014


NOTE: "FAIR" INDICATES FEW OR NO CLOUDS BELOW 12,000 FEET WITH NO
SIGNIFICANT WEATHER AND/OR OBSTRUCTIONS TO VISIBILITY. N/A MEANS
CURRENT SKY AND/OR WEATHER CONDITIONS ARE NOT AVAILABLE.

MNZ060>063-068>070-221700-
   Twin Cities Metro

CITY           SKY/WX    TMP DP  RH WIND       PRES   REMARKS
TWIN CITIES    PTSUNNY   49  39  68 SE14G24   30.18F
ST PAUL        PTSUNNY   50  40  68 SE15G22   30.21S
CRYSTAL        CLOUDY    50  38  63 SE16G23   30.16F
BLAINE         PTSUNNY   45  39  81 MISG        N/A
LAKEVILLE      CLOUDY    48  39  71 S13G18    30.18F
EDEN PRAIRIE   CLOUDY    50  40  68 SE16G23   30.16S
SOUTH ST PAUL  MOSUNNY   49  38  65 SE14G20   30.19F
LAKE ELMO      PTSUNNY   48  37  66 S16G23    30.21S
$$
MNZ001>005-007-008-013>017-022>024-027-028-221700-
   Northwest Minnesota

CITY           SKY/WX    TMP DP  RH WIND       PRES   REMARKS
BEMIDJI        SUNNY     54  40  61 S17       29.97S
HALLOCK        MOSUNNY   57  45  62 S25G36    29.79S
ROSEAU         PTSUNNY   57  45  62 S20       29.86S
WARROAD        MOSUNNY   55  45  67 SE12G17   29.88F
THIEF RVR FALL PTSUNNY   59  43  55 S23G30    29.87S
CROOKSTON      MOSUNNY   59  45  58 S21G28    29.86R
FOSSTON        MOSUNNY   57  41  54 S18G29    29.90R
DETROIT LAKES  MOSUNNY   55  43  62 S23G32    29.94S
MOORHEAD       PTSUNNY   57  45  62 S26G36    29.89S
PARK RAPIDS    SUNNY     52  39  61 S22       29.99F
MAHNOMEN       FAIR      56  42  58 S18G26    29.91S
$$
MNZ006-009>011-018-025>026-221700-
   North Central Minnesota

CITY           SKY/WX    TMP DP  RH WIND       PRES   REMARKS
BAUDETTE       SUNNY     53  40  61 S10G23    29.93F
FLAG ISLAND    PTSUNNY   48  43  81 S25       29.89R
INTL FALLS     SUNNY     51  39  63 SE16G23   30.02F
WASKISH        SUNNY     55  43  62 SE13G24   29.94F
BIG FORK       SUNNY     50  39  66 S13       30.04F
LONGVILLE      PTSUNNY   52  39  62 SE15G21   30.03F
GRAND RAPIDS   SUNNY     48  37  66 S21G31    30.07F
CRANE LAKE     SUNNY     50  37  62 S7G22     30.11S
ORR            SUNNY     50  36  57 S14G24    30.06F
COOK           SUNNY     48  37  66 S14G21    30.10F
WALKER         FAIR      50  39  64 S16G22    30.00S
$$
MNZ012-019>021-037-221700-
   Northeast Minnesota

CITY           SKY/WX    TMP DP  RH WIND       PRES   REMARKS
DULUTH         SUNNY     47  36  65 S14G22    30.17F
ELY            SUNNY     50  37  62 S14G20    30.14F
HIBBING        SUNNY     49  37  63 S13       30.12F
EVELETH        SUNNY     50  37  62 S12G18    30.14F
DULUTH HARBOR  SUNNY     52  39  62 S9        30.20F
TWO HARBORS    SUNNY     50  28  43 S13       30.18F
SILVER BAY     SUNNY     48  37  66 SE5       30.20S
GRAND MARAIS     N/A     47  39  74 S10       30.26F
G MARAIS ARPRT SUNNY     43  34  70 S8G16     30.23F
$$
MNZ029>031-032-039>041-046>048-054>057-064-221700-
   West Central Minnesota

CITY           SKY/WX    TMP DP  RH WIND       PRES   REMARKS
FERGUS FALLS   MOSUNNY   57  39  51 S24G30    29.95S
WHEATON        MOSUNNY   55  43  62 SE22G28   29.92F
MORRIS         MOSUNNY   55  43  62 SE24      29.95S
ALEXANDRIA     MOSUNNY   54  42  64 SE25G32   30.01S
ELBOW LAKE     FAIR      55  42  62 SE22G35   29.95R
WADENA         MOSUNNY   52  39  62 S17G24    29.99F
GLENWOOD       SUNNY     54  43  66 SE25      30.00F
APPLETON       MOSUNNY   61  43  51 SE20G25   29.95F
BENSON         MOSUNNY   55  43  62 S18G29    29.99F
ORTONVILLE     MOSUNNY   63  45  51 S17       29.92F
MADISON        MOSUNNY   64  46  52 S15G26    29.94F
WILLMAR        FAIR      57  41  54 SE20G28   30.05S
$$
MNZ033>034-036-042>043-049>051-058-059-221700-
   Central Minnesota

CITY           SKY/WX    TMP DP  RH WIND       PRES   REMARKS
ST CLOUD       CLOUDY    52  39  61 SE20G28   30.11F
SAUK CENTRE    FAIR      52  40  64 SE23      30.05R
PAYNESVILLE    MOSUNNY   50  39  66 E21G29    30.05F
AITKIN         PTSUNNY   52  41  66 SE12G21   30.09S
PINE RIVER     MOSUNNY   50  39  66 S16G30    30.07S
BRAINERD       CLOUDY    48  39  71 SE17G25   30.07F
STAPLES        SUNNY     50  39  66 SE15G22   30.03R
LONG PRAIRIE   FAIR      50  37  62 SE18G26   30.04F
LITTLE FALLS   MOSUNNY   48  37  66 SE16G22   30.08F
LITCHFIELD     SUNNY     54  43  66 SE15G26   30.08F
BUFFALO        CLOUDY    49  39  66 SE13G20   30.14F
MAPLE LAKE     CLOUDY    50  41  71 SE10G20   30.12F
$$
MNZ037-044-045-052-053-221700-
   East Central Minnesota

CITY           SKY/WX    TMP DP  RH WIND       PRES   REMARKS
PRINCETON      CLOUDY    50  39  66 SE15      30.15S
MORA           MOSUNNY   46  37  71 S12       30.17F
CAMBRIDGE      PTSUNNY   52  39  62 SE12      30.14F
RUSH CITY      MOSUNNY   49  38  68 S13G21    30.18S
MOOSE LAKE     SUNNY     48  37  66 S12G20    30.14F
HINCKLEY       FAIR      50  39  66 S16       30.17F
CLOQUET        SUNNY     48  37  66 S8G17     30.16S
MCGREGOR       SUNNY     50  39  66 S14       30.12F
$$
MNZ071>073-080-081-089-090-097-098-221700-
   Southwest Minnesota

CITY           SKY/WX    TMP DP  RH WIND       PRES   REMARKS
MONTEVIDEO     MOSUNNY   57  43  58 S16G24    29.99R
GRANITE FALLS  MOSUNNY   58  43  57 SE25G32   30.02S
CANBY          PTSUNNY   61  46  58 S18G26    29.95S
MARSHALL       MOSUNNY   61  43  51 S22G39    29.97F
REDWOOD FALLS  MOSUNNY   57  41  55 S23G35    30.04F
OLIVIA         SUNNY     55  41  58 S16G26    30.04S
PIPESTONE      MOSUNNY   59  45  58 S21G31    29.99S
WINDOM         SUNNY     57  43  58 S15G21    30.06S
WORTHINGTON    MOSUNNY   55  43  62 S21G29    30.06S
JACKSON        MOSUNNY   55  41  58 S20G28    30.09F
TRACY          SUNNY     59  44  58 S22G30    30.01S
SLAYTON        MOSUNNY   57  43  58 S23G29    30.03F
$$
MNZ065>067-074>077-082>085-091>093-221700-
   South Central Minnesota

CITY           SKY/WX    TMP DP  RH WIND       PRES   REMARKS
MANKATO        CLOUDY    52  37  58 SE20G28   30.14S
NEW ULM        SUNNY     55  43  62 S22G28    30.09S
ST JAMES       SUNNY     55  41  58 SE20G25   30.11S
FAIRMONT       SUNNY     54  37  54 S25G32    30.11F
GLENCOE        PTSUNNY   52  42  69 SE14G24   30.12F
FARIBAULT      MOSUNNY   50  39  66 SE18      30.18F
OWATONNA       SUNNY     48  39  71 SE15G21   30.18F
WASECA         CLOUDY    50  37  62 SE16G26   30.18F
ALBERT LEA     PTSUNNY   48  39  71 S17G24    30.19S
$$
MNZ078>079-086>088-094>096-221700-
   Southeast Minnesota

CITY           SKY/WX    TMP DP  RH WIND       PRES   REMARKS
ROCHESTER      SUNNY     48  38  68 S16G28    30.24F
RED WING       SUNNY     52  37  58 SE14      30.23F
STANTON        PTSUNNY   52  39  63 S15G24    30.18S
DODGE CENTER   PTSUNNY   48  39  71 S24       30.20F
WINONA         SUNNY     52  36  54 S7        30.29S
AUSTIN         PTSUNNY   48  39  71 S12G18    30.21F
PRESTON        SUNNY     47  37  70 S16       30.26F
$$
ABBREVIATIONS USED IN REMARKS
   TC - TEMPERATURES IN CELSIUS
  WCI - WIND CHILL INDEX
   HX - HEAT INDEX
  VSB - VISIBILITY
$$



USA.gov is the U.S. government's official web portal to all federal, state and local government web resources and services.